Regional Weather Roundup
Issued by NWS Cleveland, OH

Home | Current Version | Previous Version | Graphics & Text | Print | Product List | Glossary On
Versions: 1 2 3 4 5 6 7 8 9 10 11 12 13 14 15 16 17 18 19 20 21 22 23 24 25 26 27 28 29 30 31 32 33 34 35 36 37 38 39 40 41 42 43 44 45 46 47 48 49 50
855
ASUS41 KCLE 180710
RWRCLE
OHIO REGIONAL WEATHER ROUNDUP
NATIONAL WEATHER SERVICE WILMINGTON, OH
300 AM EDT WED OCT 18 2017

NOTE: "FAIR" INDICATES FEW OR NO CLOUDS BELOW 12,000 FEET WITH NO
SIGNIFICANT WEATHER AND/OR OBSTRUCTIONS TO VISIBILITY.

OHZ001>008-015>018-024>027-034-035-043-044-180800-
   NORTHWEST OHIO

CITY           SKY/WX    TMP DP  RH WIND       PRES   REMARKS
DEFIANCE       FAIR      45  38  76 S3        30.24S
FINDLAY        FAIR      45  37  73 S7        30.25S
TOLEDO EXPRESS FAIR      50  42  74 SW5       30.22S
TOLEDO EXEC    FAIR      48  40  73 SW7       30.24R
LIMA           FAIR      45  40  82 S3        30.26S
$$

OHZ009>014-019>023-028>033-038-089-180800-
   NORTHEAST OHIO

CITY           SKY/WX    TMP DP  RH WIND       PRES   REMARKS
CLE-HOPKINS    FAIR      50  39  66 SE5       30.28R
CLE-LAKEFRONT  FAIR      53  39  59 S8        30.25S
CUY CO. ARPT   NOT AVBL
LORAIN-ELYRIA  FAIR      44  35  70 CALM      30.27R
ASHTABULA      FAIR      48  40  73 CALM      30.27S
AKRON-CANTON   FAIR      48  38  68 SW8       30.28S
WOOSTER        FAIR      38  36  92 S3        30.28F
MANSFIELD      FAIR      43  39  86 S6        30.27F
YOUNGSTOWN     FAIR      43  38  82 S3        30.28S
$$

OHZ042-051>053-060>062-070>072-077>081-180800-
  SOUTHWEST OHIO

CITY           SKY/WX    TMP DP  RH WIND       PRES   REMARKS
CINC-COVINGTON FAIR      46  41  82 S6        30.27S
CINC-LUNKEN    FOG       41  41 100 CALM      30.30S VSB 1/2
HAMILTON       FAIR      38  37  97 CALM      30.29R
DAYTON         FAIR      47  42  83 S7        30.29R
WRIGHT-PAT AFB FAIR      45  41  86 CALM      30.29R
DAYTON GENERAL FAIR      47  40  76 SE5       30.28R
WILMINGTON     FAIR      43  40  89 CALM      30.29S
$$

OHZ036-037-039>041-045>050-054>059-063>069-073>076-082>088-180800-
  CENTRAL AND SOUTHEAST OHIO

CITY           SKY/WX    TMP DP  RH WIND       PRES   REMARKS
COLUMBUS       FAIR      44  43  96 CALM      30.29S
OSU AIRPORT    FAIR      45  42  89 SE3       30.29S
BOLTON FIELD   FAIR      41  39  95 CALM      30.29S
RICKENBACK AFB FAIR      43  41  93 CALM      30.29S
NEWARK         FAIR      39  36  89 CALM      30.30R
MARION         FAIR      44  38  79 S8        30.28S
LANCASTER      FAIR      39  38  96 S3        30.30S
ZANESVILLE     FAIR      41  38  89 CALM      30.30S
NEW PHILLY     FAIR      42  39  89 SE3       30.31S
$$




USA.gov is the U.S. government's official web portal to all federal, state and local government web resources and services.